Regional Weather Roundup
Issued by NWS Binghamton, NY

Home | Current Version | Previous Version | Text Only | Print | Product List | Glossary On
Versions: 1 2 3 4 5 6 7 8 9 10 11 12 13 14 15 16 17 18 19 20 21 22 23 24 25 26 27 28 29 30 31 32 33 34 35 36 37 38 39 40 41 42 43 44 45 46 47 48 49 50
000
ASUS41 KBGM 291510
RWRBGM

REGIONAL WEATHER ROUNDUP
NATIONAL WEATHER SERVICE BINGHAMTON NY
1100 AM EDT THU SEP 29 2016

Note: "fair" indicates few or no clouds below 12,000 feet with no
significant weather and/or obstructions to visibility.

* = Station(s) that does not report precipitation, such as rain,
snow, etc, also no thunder or fog.

NYZ009-015>018-022>025-036-037-044>046-055>057-062-291600
...Central New York...

CITY           SKY/WX    TMP DP  RH WIND       PRES   REMARKS
Binghamton     LGT RAIN  53  52  96 E9        30.33R
Cortland       DRIZZLE   55  54  94 E7        30.34S
Dansville      CLOUDY    60  55  83 E8        30.29S
Elmira         LGT RAIN  58  54  86 E8        30.31R
Ithaca         LGT RAIN  55  53  93 E9        30.33S
Hamilton       CLOUDY    59  46  63 E6        30.38R
Hornell        CLOUDY    57  54  88 SE6       30.33R
Monticello     CLOUDY    54  46  76 E21G29    30.39R
Norwich        CLOUDY    57  46  67 E5        30.37S
Oneonta        SUNNY     55  45  67 E9G20     30.37S
Penn Yan       LGT RAIN  56  53  90 VRB5      30.33S
Rome           CLOUDY    60  48  64 E20       30.41R
Sidney         PTSUNNY   57  57 100 CALM      30.35S
Syracuse       PTSUNNY   58  49  72 E12       30.36R
$$

PAZ038>040-043-044-047-048-072-291600
...Northeast Pennsylvania...

CITY           SKY/WX    TMP DP  RH WIND       PRES   REMARKS
Hazleton       LGT RAIN  54  52  94 E7G18     30.32R
Scranton       CLOUDY    56  52  86 NE10      30.31R
$$
&&
KEY
WCI = Wind Chill Index
VSB = Visibility
HX  = Heat Index
$$



USA.gov is the U.S. government's official web portal to all federal, state and local government web resources and services.